This is the latest recevied weather packets stored in our database for station/object KI8L. If no packets are shown the sender has not sent any weather packets the latest 10 day(s).
| Time | Temp. | Humidity | Pressure | Rain* | Wind** | Luminosity | Snow |
|---|---|---|---|---|---|---|---|
| 1777757874 | 5.56° C | 71% | 1019.2 hPa | 0 mm | - | 56 W/m² | - |
| 1777757571 | 5.56° C | 72% | 1019.1 hPa | 0 mm | - | 77 W/m² | - |
| 1777757270 | 5.56° C | 71% | 1019.2 hPa | 0 mm | - | 78 W/m² | - |
| 1777756057 | 6.11° C | 67% | 1019.1 hPa | 0 mm | - | 56 W/m² | - |
| 1777755755 | 6.11° C | 65% | 1018.9 hPa | 0 mm | - | 79 W/m² | - |
| 1777754240 | 6.67° C | 65% | 1018.9 hPa | 0 mm | - | 141 W/m² | - |
| 1777753632 | 6.67° C | 65% | 1019 hPa | 0 mm | - | 157 W/m² | - |
| 1777753028 | 6.67° C | 70% | 1019.1 hPa | 0 mm | - | 195 W/m² | - |
| 1777752420 | 6.67° C | 70% | 1019.2 hPa | 0 mm | - | 188 W/m² | - |
| 1777751511 | 6.11° C | 70% | 1019.3 hPa | 0 mm | - | 140 W/m² | - |
| 1777751208 | 6.11° C | 70% | 1019.2 hPa | 0 mm | - | 133 W/m² | - |
| 1777750601 | 6.11° C | 70% | 1019.2 hPa | 0 mm | - | 143 W/m² | - |
| 1777749993 | 6.11° C | 73% | 1019.5 hPa | 0 mm | - | 149 W/m² | - |
| 1777749691 | 6.11° C | 71% | 1019.6 hPa | 0 mm | - | 177 W/m² | - |
| 1777749388 | 6.11° C | 72% | 1019.5 hPa | 0 mm | - | 226 W/m² | - |
| 1777749085 | 6.11° C | 74% | 1019.4 hPa | 0 mm | - | 245 W/m² | - |
| 1777747872 | 5.56° C | 76% | 1019.7 hPa | 0 mm | - | 186 W/m² | - |
| 1777746960 | 5° C | 75% | 1019.5 hPa | 0 mm | - | 119 W/m² | - |
| 1777746656 | 5.56° C | 76% | 1019.7 hPa | 0 mm | - | 123 W/m² | - |
| 1777746351 | 5.56° C | 76% | 1019.5 hPa | 0 mm | - | 160 W/m² | - |
| 1777746047 | 5.56° C | 80% | 1019.7 hPa | 0 mm | - | 144 W/m² | - |
| 1777745746 | 5° C | 78% | 1019.7 hPa | 0 mm | - | 117 W/m² | - |
| 1777745444 | 5° C | 79% | 1019.7 hPa | 0 mm | - | 97 W/m² | - |
| 1777745141 | 5° C | 77% | 1019.8 hPa | 0 mm | - | 87 W/m² | - |
| 1777744838 | 5° C | 80% | 1019.6 hPa | 0 mm | - | 93 W/m² | - |
* Rain latest hour (hover to see other rain measurements)
** Current wind speed in m/s (hover to see current wind gust speed)